1530014401.03,14816,15.88,73990.8,5.97,5.81,5.85,0,*78
1530014402.29,14817,15.88,73988.3,5.97,5.85,5.85,0,*7D
1530014403.52,14818,15.88,73994.3,5.97,4.89,4.59,0,*7F
1530014404.76,14819,15.88,73990.5,5.97,5.27,5.23,0,*77
1530014405.99,14820,15.88,73994.8,5.95,5.51,5.51,0,*7B
1530014407.17,14821,15.88,73992.5,5.95,5.63,5.63,0,*7A
1530014408.41,14822,15.88,73992.0,5.95,5.73,5.73,0,*79
1530014409.62,14823,15.88,73992.0,5.93,5.67,5.67,0,*7E
1530014410.86,14824,15.94,73994.5,5.93,5.71,5.81,0,*76
1530014412.12,14825,15.94,73994.3,5.93,5.93,5.81,0,*7B
1530014413.36,14826,15.88,73992.0,5.91,5.89,5.89,0,*79
1530014414.6,14827,15.88,73990.3,5.91,5.89,5.93,0,*73
1530014415.84,14828,15.94,73992.5,5.91,5.89,5.93,0,*7C
1530014417.05,14829,15.88,73994.8,5.91,5.95,5.93,0,*70
1530014418.24,14830,15.88,73994.0,5.91,5.95,6.03,0,*72
1530014419.5,14831,15.94,73994.8,5.93,6.13,6.13,0,*7D
1530014420.72,14832,15.88,73992.5,5.93,6.03,6.03,0,*7E
1530014421.98,14833,15.88,73994.3,5.93,5.77,5.81,0,*76
1530014423.2,14834,15.88,73992.8,5.93,5.67,5.67,0,*78
1530014424.4,14835,15.88,73992.3,5.91,5.49,5.55,0,*76
1530014425.65,14836,15.94,73994.5,5.89,5.55,5.51,0,*75
1530014426.91,14837,15.88,73994.0,5.89,5.51,5.51,0,*70
1530014428.16,14838,15.94,73994.8,5.89,5.55,5.51,0,*7B
1530014429.35,14839,15.94,73996.3,5.89,5.29,5.29,0,*7E
1530014430.57,14840,15.94,73992.5,5.89,5.19,5.23,0,*79
1530014431.74,14841,15.88,73992.0,5.83,5.41,5.41,0,*7B
1530014432.96,14842,15.94,73994.5,5.85,5.51,5.63,0,*7F
1530014434.14,14843,15.94,73996.3,5.83,5.63,5.63,0,*79
1530014435.33,14844,15.94,73994.0,5.81,5.71,5.59,0,*76
1530014436.53,14845,15.94,73992.3,5.81,5.71,5.71,0,*7D
1530014437.77,14846,15.94,73994.8,5.81,5.77,5.81,0,*77
1530014439.01,14847,15.88,73988.3,5.81,5.85,5.93,0,*78
1530014440.19,14848,15.88,73990.5,5.83,5.99,5.99,0,*72
1530014441.38,14849,15.88,73992.3,5.83,5.95,5.99,0,*7F
1530014442.56,14850,15.94,73994.5,5.83,5.95,5.99,0,*77
1530014443.76,14851,15.94,73992.0,5.85,5.95,5.99,0,*70
1530014444.94,14852,15.94,73992.5,5.83,5.95,5.95,0,*79
1530014446.12,14853,15.88,73992.5,5.83,5.95,5.95,0,*78
1530014447.34,14854,15.88,73992.0,5.83,5.89,5.89,0,*7F
1530014448.59,14855,15.88,73992.5,5.81,5.85,5.89,0,*70
1530014449.83,14856,15.88,73990.8,5.85,5.73,5.81,0,*76
1530014451.01,14857,15.94,73996.0,5.83,5.63,5.71,0,*7F
1530014452.23,14858,15.94,73994.0,5.83,5.81,5.73,0,*7E
1530014453.47,14859,15.94,73992.0,5.81,5.81,5.77,0,*79
1530014454.68,14860,15.94,73992.3,5.79,5.77,5.77,0,*7D
1530014455.86,14861,15.88,73992.0,5.79,5.67,5.67,0,*7C
1530014457.08,14862,15.94,73992.5,5.79,5.55,5.55,0,*7F
1530014458.25,14863,15.94,73992.3,5.79,5.59,5.59,0,*7E
1530014459.43,14864,15.94,73994.3,5.79,5.71,5.67,0,*7E
1530014460.63,14865,15.94,73992.5,5.81,5.67,5.67,0,*7F
1530014461.81,14866,15.94,73994.5,5.79,5.67,5.71,0,*7C
1530014463.0,14867,15.94,73994.3,5.77,5.63,5.63,0,*74
1530014464.25,14868,15.94,73994.5,5.77,5.51,5.51,0,*7B
1530014465.41,14869,15.88,73992.0,5.79,5.49,5.49,0,*74
1530014466.6,14870,15.94,73994.0,5.77,5.45,5.45,0,*72
1530014467.8,14871,15.94,73994.5,5.75,5.41,5.51,0,*70
1530014468.98,14872,15.94,73994.0,5.75,5.67,5.67,0,*72
1530014470.15,14873,15.88,73988.8,5.75,5.59,5.63,0,*7A
1530014471.32,14874,15.94,73992.5,5.75,5.63,5.71,0,*77
1530014472.54,14875,15.94,73992.8,5.75,5.77,5.77,0,*75
1530014473.76,14876,15.94,73994.0,5.75,5.81,5.81,0,*76
1530014474.98,14877,15.88,73992.5,5.75,5.89,5.77,0,*76
1530014476.16,14878,15.94,73996.0,5.75,5.99,5.99,0,*78
1530014477.36,14879,15.88,73990.5,5.77,6.11,6.03,0,*78
1530014478.56,14880,15.94,73994.0,5.77,6.11,6.11,0,*7D
1530014479.73,14881,15.94,73994.0,5.75,6.11,6.07,0,*79
1530014480.93,14882,15.94,73992.5,5.77,6.25,6.25,0,*7F
1530014482.16,14883,15.94,73992.5,5.79,6.39,6.35,0,*7C
1530014483.39,14884,15.94,73992.3,5.79,6.47,6.51,0,*70
1530014484.62,14885,15.88,73990.3,5.79,6.51,6.51,0,*76
1530014485.86,14886,15.94,73990.8,5.79,6.47,6.47,0,*75
1530014487.09,14887,15.94,73994.5,5.81,6.29,6.35,0,*7E
1530014488.29,14888,15.94,73994.3,5.81,6.25,6.29,0,*70
1530014489.49,14889,15.94,73994.8,5.81,6.25,6.25,0,*7D
1530014490.71,14890,15.94,73992.8,5.79,6.17,6.17,0,*72
1530014491.96,14891,15.94,73990.8,5.81,6.17,6.13,0,*70
1530014493.2,14892,15.94,73994.3,5.81,6.13,6.17,0,*73
1530014494.45,14893,15.94,73992.5,5.81,6.17,6.17,0,*76
1530014495.63,14894,15.88,73990.5,5.83,6.29,6.29,0,*73
1530014496.85,14895,15.94,73992.5,5.83,6.17,6.17,0,*72
1530014498.08,14896,15.94,73990.8,5.83,6.17,6.17,0,*71
1530014499.26,14897,15.94,73992.0,5.83,6.21,6.21,0,*70
1530014500.52,14898,15.94,73992.3,5.81,6.35,6.35,0,*7D
1530014501.74,14899,15.94,73994.5,5.83,6.43,6.53,0,*7F
1530014503.0,14900,15.94,73994.5,5.85,6.51,6.51,0,*79
1530014504.24,14901,15.94,73992.8,5.85,6.57,6.53,0,*7C
1530014505.48,14902,15.94,73992.5,5.85,6.65,6.65,0,*7B
1530014506.72,14903,15.94,73994.5,5.85,6.57,6.57,0,*7A
1530014507.97,14904,15.94,73992.8,5.85,6.57,6.65,0,*7C
1530014509.22,14905,15.94,73990.3,5.89,6.61,6.61,0,*70
1530014510.45,14906,15.94,73992.5,5.91,6.65,6.73,0,*7D
1530014511.71,14907,15.94,73992.0,5.93,6.65,6.65,0,*79
1530014512.94,14908,15.94,73992.0,5.91,6.61,6.61,0,*74
1530014514.2,14909,15.94,73994.3,5.89,6.53,6.47,0,*79
1530014515.44,14910,15.94,73992.0,5.91,6.39,6.39,0,*7D
1530014516.7,14911,15.94,73994.0,5.89,6.35,6.39,0,*79
1530014517.95,14912,15.94,73992.0,5.91,6.51,6.47,0,*78
1530014519.18,14913,15.94,73998.3,5.91,6.51,6.57,0,*78
1530014520.43,14914,15.94,73992.0,5.89,6.53,6.53,0,*70
1530014521.65,14915,15.94,73994.5,5.91,6.25,6.35,0,*79
1530014522.86,14916,15.94,73992.8,5.91,6.29,6.39,0,*7A
1530014524.13,14917,15.94,73994.5,5.89,6.35,6.35,0,*73
1530014525.4,14918,15.94,73992.0,5.93,6.51,6.51,0,*77
1530014526.63,14919,15.94,73994.3,5.91,6.61,6.61,0,*74
1530014527.86,14920,15.94,73994.0,5.91,6.61,6.61,0,*7E
1530014529.09,14921,15.88,73988.5,5.91,6.61,6.61,0,*7F
1530014530.35,14922,15.94,73992.0,5.93,6.65,6.61,0,*7A
1530014531.58,14923,15.94,73990.8,5.93,6.83,6.73,0,*70
1530014532.82,14924,15.94,73992.0,5.95,6.91,6.87,0,*79
1530014533.99,14925,15.94,73994.3,5.99,7.01,7.01,0,*73
1530014535.16,14926,15.94,73992.0,5.99,7.01,7.01,0,*70
1530014536.38,14927,15.94,73994.0,5.97,6.97,6.97,0,*7F
1530014537.56,14928,15.94,73994.8,5.99,6.93,6.93,0,*7E
1530014538.8,14929,15.88,73988.8,6.01,6.47,6.29,0,*75
1530014540.04,14930,15.94,73992.0,5.97,6.21,6.17,0,*7C
1530014541.29,14931,15.94,73994.3,5.97,6.61,6.61,0,*78
1530014542.54,14932,15.94,73998.0,5.97,6.53,6.53,0,*7B
1530014543.78,14933,15.94,73992.8,5.97,6.43,6.33,0,*7D
1530014545.04,14934,15.88,73988.5,5.97,6.53,6.51,0,*7F
1530014546.29,14935,15.94,73994.8,5.97,6.61,6.69,0,*74
1530014547.52,14936,15.94,73994.3,5.99,6.69,6.69,0,*71
1530014548.75,14937,15.94,73992.5,5.99,6.73,6.69,0,*7B
1530014549.98,14938,15.94,73992.8,5.99,6.73,6.69,0,*74
1530014551.21,14939,15.94,73992.8,5.99,6.73,6.69,0,*75
1530014552.39,14940,15.94,73992.0,5.99,6.83,6.79,0,*75
1530014553.6,14941,15.94,73992.8,5.99,6.83,6.91,0,*72
1530014554.81,14942,15.94,73992.3,6.01,7.05,6.97,0,*7A
1530014556.05,14943,15.94,73992.3,6.01,6.87,6.75,0,*7C
1530014557.26,14944,15.94,73992.0,6.03,6.13,6.07,0,*71
1530014558.45,14945,15.94,73994.8,6.03,5.99,5.99,0,*75
1530014559.64,14946,15.94,73994.5,5.99,5.95,5.99,0,*7A
1530014560.87,14947,15.94,73996.0,5.99,5.55,5.55,0,*77
1530014562.1,14948,15.94,73994.8,5.99,5.51,5.51,0,*78
1530014563.36,14949,15.94,73990.8,5.97,5.81,5.81,0,*77
1530014564.54,14950,15.94,73994.3,5.99,5.99,5.95,0,*7D
1530014565.76,14951,15.94,73992.3,5.97,5.99,5.99,0,*7E
1530014566.97,14952,15.94,73994.0,5.97,6.11,6.11,0,*7D
1530014568.16,14953,15.94,73992.3,5.99,6.25,6.25,0,*72
1530014569.42,14954,15.94,73992.0,6.01,6.39,6.39,0,*77
1530014570.68,14955,15.94,73992.3,6.01,6.39,6.35,0,*7A
1530014571.89,14956,15.94,73992.8,5.99,6.13,6.11,0,*75
1530014573.08,14957,15.94,73994.8,5.99,5.99,5.95,0,*7A
1530014574.29,14958,15.94,73992.8,5.97,5.99,5.95,0,*7B
1530014575.5,14959,15.94,73992.3,5.99,5.67,5.77,0,*79
1530014576.73,14960,15.94,73992.0,5.97,5.51,5.59,0,*74
1530014577.96,14961,15.94,73994.0,5.99,5.73,5.55,0,*77
1530014579.17,14962,15.94,73994.8,5.99,5.77,5.63,0,*75
1530014580.43,14963,15.94,73994.8,5.97,5.93,5.85,0,*78
1530014581.64,14964,15.94,73994.5,5.97,5.99,5.95,0,*74
1530014582.85,14965,15.88,73988.0,5.97,6.11,6.07,0,*7E
1530014584.04,14966,15.94,73998.3,5.99,6.25,6.11,0,*73
1530014585.26,14967,15.94,73994.8,5.97,6.21,6.11,0,*78
1530014586.45,14968,15.94,73992.3,5.99,6.25,6.11,0,*7D
1530014587.63,14969,15.94,73994.0,5.99,6.11,6.11,0,*7B
1530014588.84,14970,15.94,73994.5,5.97,6.07,6.07,0,*7D
1530014590.05,14971,15.94,73992.5,5.99,6.13,6.03,0,*73
1530014591.26,14972,15.94,73994.5,5.97,6.11,6.07,0,*78
1530014592.48,14973,15.94,73994.5,5.97,6.21,6.11,0,*7D
1530014593.72,14974,15.94,73994.3,5.97,6.21,6.17,0,*7C
1530014594.95,14975,15.94,73994.5,5.97,6.21,6.17,0,*7D
1530014596.19,14976,15.94,73998.3,5.97,6.17,6.07,0,*7A
1530014597.4,14977,15.94,73992.5,5.99,6.13,6.03,0,*75
1530014598.61,14978,15.94,73992.5,5.97,6.07,5.99,0,*71
1530014599.87,14979,15.94,73994.0,5.97,6.17,6.17,0,*74
1530014601.09,14980,15.94,73994.8,5.97,6.29,6.21,0,*7A
1530014602.33,14981,15.94,73992.0,5.99,6.35,6.35,0,*7D
1530014603.55,14982,15.94,73992.8,5.97,6.33,6.33,0,*70
1530014604.79,14983,15.94,73992.8,5.97,6.39,6.33,0,*7B
1530014606.05,14984,15.94,73992.5,5.97,6.53,6.43,0,*77
1530014607.28,14985,15.94,73992.5,5.99,6.53,6.47,0,*7C
1530014608.54,14986,15.94,73994.0,6.01,6.57,6.51,0,*7E
1530014609.77,14987,15.94,73992.5,5.99,6.57,6.57,0,*7B
1530014611.01,14988,15.94,73996.0,5.99,6.65,6.65,0,*74
1530014612.21,14989,15.94,73990.8,5.99,5.67,5.73,0,*70
1530014613.4,14990,15.94,73992.8,5.99,5.95,5.95,0,*7D
1530014614.61,14991,15.94,73994.0,6.01,6.07,5.99,0,*7A
1530014615.81,14992,15.94,73994.3,5.99,6.03,6.03,0,*7F
1530014617.0,14993,15.94,73992.0,5.99,6.21,6.11,0,*7D
1530014618.24,14994,15.94,73992.0,5.99,6.43,6.35,0,*78
1530014619.47,14995,15.94,73994.0,5.99,6.57,6.57,0,*78
1530014620.7,14996,15.94,73996.8,5.99,6.69,6.69,0,*7B
1530014621.9,14997,15.94,73992.5,6.01,6.83,6.75,0,*71
1530014623.14,14998,15.94,73994.3,6.03,6.47,6.39,0,*7C
1530014624.35,14999,15.94,73998.0,6.03,6.39,6.29,0,*75
1530014625.58,15000,15.94,73992.8,6.01,6.39,6.29,0,*7F
1530014626.83,15001,15.94,73992.5,6.03,6.35,6.35,0,*7D
1530014628.07,15002,15.94,73994.8,6.03,6.39,6.35,0,*72
1530014629.33,15003,15.94,73994.0,6.01,6.47,6.39,0,*74
1530014630.57,15004,15.94,73994.0,6.03,6.47,6.35,0,*7D
1530014631.79,15005,15.94,73994.5,6.03,6.29,6.35,0,*74
1530014633.02,15006,15.94,73996.5,6.03,6.17,6.17,0,*7A
1530014634.26,15007,15.94,73994.0,6.03,6.13,6.13,0,*7B
1530014635.52,15008,15.94,73996.0,6.01,6.13,6.13,0,*76
1530014636.75,15009,15.94,73994.3,6.03,6.17,6.13,0,*71
1530014637.96,15010,15.94,73990.0,6.03,6.25,6.17,0,*7C
1530014639.2,15011,15.94,73992.3,6.01,6.25,6.17,0,*7F
1530014640.4,15012,15.94,73992.5,6.03,6.29,6.25,0,*73
1530014641.61,15013,15.94,73994.5,6.01,6.25,6.29,0,*70
1530014642.8,15014,15.94,73992.5,6.03,6.29,6.25,0,*75
1530014644.03,15015,15.94,73996.0,6.01,6.39,6.29,0,*7B
1530014645.28,15016,15.94,73992.0,6.01,6.35,6.25,0,*78
1530014646.49,15017,15.94,73994.0,6.01,6.25,6.25,0,*78
1530014647.71,15018,15.94,73994.8,6.01,5.99,5.99,0,*77
1530014648.91,15019,15.94,73994.0,6.01,6.07,6.07,0,*76
1530014650.15,15020,15.94,73992.3,6.01,6.35,6.25,0,*7D
1530014651.41,15021,15.94,73992.0,6.01,6.61,6.51,0,*7E
1530014652.65,15022,15.94,73996.0,6.03,6.73,6.61,0,*7F
1530014653.85,15023,15.94,73992.5,6.05,6.79,6.75,0,*77
1530014655.08,15024,15.94,73994.3,6.05,6.87,6.79,0,*7D
1530014656.29,15025,15.94,73994.8,6.07,6.91,6.93,0,*7D
1530014657.47,15026,15.94,73994.5,6.07,6.83,6.83,0,*7C
1530014658.7,15027,15.94,73992.8,6.05,6.75,6.73,0,*79
1530014659.94,15028,15.94,73994.0,6.07,6.65,6.53,0,*77
1530014661.15,15029,15.94,73994.3,6.05,6.33,6.29,0,*7A
1530014662.36,15030,15.94,73992.8,6.05,6.33,6.29,0,*72
1530014663.63,15031,15.94,73998.0,6.05,6.51,6.39,0,*76
1530014664.88,15032,15.94,73992.8,6.05,6.61,6.61,0,*7B
1530014666.08,15033,15.94,73990.5,6.07,6.75,6.69,0,*75
1530014667.33,15034,15.94,73992.0,6.07,6.65,6.47,0,*7F
1530014668.59,15035,15.94,73992.8,6.13,6.61,6.51,0,*78
1530014669.82,15036,15.94,73994.0,6.07,6.69,6.69,0,*7D
1530014671.0,15037,15.94,73992.8,6.07,6.83,6.79,0,*79
1530014672.2,15038,15.94,73994.5,6.13,6.93,6.93,0,*76
1530014673.4,15039,15.94,73994.8,6.13,7.01,7.05,0,*73
1530014674.6,15040,15.94,73994.5,6.13,7.05,7.05,0,*79
1530014675.8,15041,15.94,73996.3,6.15,7.15,7.05,0,*7F
1530014677.0,15042,15.94,73992.3,6.15,7.09,6.87,0,*7A
1530014678.19,15043,15.94,73992.5,6.15,6.97,6.83,0,*79
1530014679.4,15044,15.94,73992.0,6.17,7.09,6.97,0,*7F
1530014680.6,15045,15.94,73994.8,6.17,7.01,6.97,0,*76
1530014681.79,15046,15.94,73992.5,6.19,6.93,6.93,0,*75
1530014683.0,15047,15.94,73994.0,6.19,6.93,6.91,0,*76
1530014684.21,15048,15.94,73992.5,6.19,6.79,6.87,0,*7A
1530014685.41,15049,15.94,73992.3,6.19,6.69,6.75,0,*77
1530014686.65,15050,15.94,73994.5,6.19,6.57,6.47,0,*73
1530014687.88,15051,15.94,73990.5,6.19,6.57,6.53,0,*77
1530014689.14,15052,15.94,73992.3,6.17,6.53,6.51,0,*7C
1530014690.39,15053,15.94,73996.0,6.17,6.61,6.53,0,*7E
1530014691.65,15054,15.94,73992.5,6.17,6.65,6.61,0,*7C
1530014692.9,15055,15.94,73992.8,6.17,6.73,6.73,0,*79
1530014694.13,15056,15.94,73994.5,6.21,6.57,6.57,0,*7F
1530014695.37,15057,15.94,73994.5,6.19,6.47,6.47,0,*75
1530014696.59,15058,15.94,73994.0,6.19,6.69,6.57,0,*77
1530014697.77,15059,15.94,73994.8,6.19,6.79,6.79,0,*7B
1530014698.94,15060,15.94,73994.3,6.21,7.01,6.93,0,*70
1530014700.18,15061,15.94,73996.5,6.19,7.11,7.11,0,*70
1530014701.41,15062,15.94,73992.5,6.21,7.23,7.23,0,*78
1530014702.58,15063,15.94,73994.5,6.21,7.37,7.33,0,*7D
1530014703.76,15064,15.94,73996.0,6.21,7.45,7.45,0,*7E
1530014704.97,15065,15.94,73994.0,6.25,7.59,7.61,0,*70
1530014706.19,15066,15.94,73996.5,6.27,7.79,7.79,0,*7A
1530014707.4,15067,15.94,73994.0,6.27,8.01,8.01,0,*7B
1530014708.58,15068,15.94,73992.3,6.29,8.23,8.23,0,*7A
1530014709.81,15069,15.94,73992.3,6.31,8.61,8.71,0,*73
1530014710.99,15070,15.94,73992.3,6.37,9.03,9.03,0,*7C
1530014712.19,15071,15.94,73990.8,6.39,9.29,9.33,0,*78
1530014713.42,15072,15.94,73994.0,6.43,9.35,9.47,0,*78
1530014714.62,15073,15.94,73994.5,6.47,9.29,9.43,0,*74
1530014715.88,15074,15.94,73994.0,6.47,9.19,9.19,0,*7F
1530014717.14,15075,15.94,73994.3,6.53,8.93,8.93,0,*7B
1530014718.33,15076,15.94,73996.3,6.53,8.65,8.65,0,*78
1530014719.56,15077,15.94,73994.8,6.57,8.29,8.27,0,*73
1530014720.76,15078,15.94,73996.8,6.61,7.97,7.97,0,*77
1530014721.99,15079,15.94,73998.0,6.61,7.97,7.95,0,*74
1530014723.2,15080,15.94,73994.8,6.61,8.09,8.09,0,*70
1530014724.41,15081,15.94,73994.3,6.61,8.23,8.19,0,*78
1530014725.66,15082,15.94,73996.0,6.65,8.33,8.33,0,*76
1530014726.89,15083,15.94,73994.8,6.65,8.45,8.33,0,*76
1530014728.12,15084,15.94,73994.5,6.67,8.41,8.41,0,*72
1530014729.32,15085,15.94,73996.0,6.69,8.45,8.45,0,*7D
1530014730.52,15086,15.94,73992.8,6.71,8.29,8.23,0,*7D
1530014731.7,15087,15.94,73994.5,6.71,8.05,8.09,0,*7A
1530014732.9,15088,15.94,73994.5,6.73,8.01,8.01,0,*7B
1530014734.1,15089,15.94,73994.0,6.73,7.97,7.97,0,*7A
1530014735.27,15090,15.94,73996.0,6.75,7.97,7.97,0,*74
1530014736.45,15091,15.94,73994.0,6.75,8.09,7.97,0,*7D
1530014737.62,15092,15.94,73992.5,6.75,8.01,7.97,0,*76
1530014738.79,15093,15.94,73994.0,6.79,8.05,8.05,0,*7B
1530014740.02,15094,15.94,73998.8,6.79,8.13,8.13,0,*7C
1530014741.25,15095,15.94,73994.0,6.79,8.13,8.13,0,*7D
1530014742.48,15096,15.94,73998.3,6.79,8.13,8.13,0,*7E
1530014743.68,15097,15.94,73996.8,6.81,8.19,8.15,0,*74
1530014744.91,15098,15.94,73990.0,6.81,8.29,8.27,0,*79
1530014746.13,15099,15.94,73996.8,6.81,8.29,8.27,0,*78
1530014747.38,15100,15.94,73996.5,6.81,8.33,8.33,0,*77
1530014748.56,15101,15.94,73998.8,6.83,8.45,8.45,0,*74
1530014749.73,15102,15.94,73996.8,6.85,8.65,8.65,0,*71
1530014750.98,15103,15.94,73994.5,6.87,8.75,8.75,0,*72
1530014752.18,15104,15.94,73994.3,6.87,8.65,8.69,0,*79
1530014753.41,15105,15.94,73992.8,6.89,8.47,8.47,0,*7A
1530014754.6,15106,15.94,73994.5,6.89,8.27,8.27,0,*79
1530014755.81,15107,15.94,73994.5,6.89,8.15,8.13,0,*7E
1530014757.04,15108,15.94,73996.0,6.89,7.83,7.83,0,*77
1530014758.3,15109,15.94,73994.3,6.91,7.77,7.77,0,*7F
1530014759.57,15110,15.94,73994.3,6.91,7.77,7.77,0,*77
1530014760.83,15111,15.94,73994.8,6.91,7.77,7.73,0,*72
1530014762.09,15112,15.94,73996.0,6.91,7.15,7.19,0,*79
1530014763.32,15113,15.94,73992.0,6.89,7.23,7.27,0,*79
1530014764.5,15114,15.94,73996.5,6.89,7.45,7.37,0,*7F
1530014765.7,15115,15.94,73996.8,6.89,7.59,7.47,0,*74
1530014766.91,15116,15.94,73994.3,6.91,7.59,7.59,0,*71
1530014768.09,15117,15.94,73992.5,6.89,7.45,7.45,0,*79
1530014769.27,15118,15.94,73998.5,6.89,7.37,7.37,0,*76
1530014770.5,15119,15.94,73994.3,6.89,7.27,7.27,0,*77
1530014771.75,15120,15.94,73994.0,6.87,7.11,7.11,0,*73
1530014772.96,15121,15.94,73992.5,6.85,7.29,7.23,0,*7A
1530014774.16,15122,15.94,73994.3,6.87,7.45,7.45,0,*71
1530014775.36,15123,15.94,73994.5,6.85,7.33,7.23,0,*73
1530014776.59,15124,15.94,73992.5,6.87,7.29,7.11,0,*7C
1530014777.76,15125,15.94,73992.0,6.85,7.51,7.45,0,*71
1530014778.99,15126,15.94,73992.3,6.85,7.69,7.69,0,*77
1530014780.19,15127,15.94,73992.0,6.87,7.97,7.97,0,*74
1530014781.38,15128,15.94,73992.0,6.89,8.23,8.23,0,*75
1530014782.61,15129,15.94,73994.8,6.89,8.37,8.37,0,*74
1530014783.84,15130,15.94,73996.5,6.91,8.61,8.55,0,*72
1530014785.06,15131,15.94,73996.8,6.91,8.87,8.87,0,*74
1530014786.26,15132,15.94,73998.5,6.95,9.25,9.25,0,*73
1530014787.46,15133,15.94,73994.3,6.97,9.47,9.53,0,*75
1530014788.66,15134,15.94,73996.0,7.03,9.63,9.71,0,*78
1530014789.89,15135,15.94,73996.8,7.07,9.75,9.85,0,*71
1530014791.08,15136,15.94,73994.5,7.09,9.99,10.09,0,*42
1530014792.33,15137,15.94,73996.3,7.11,10.17,10.23,0,*7C
1530014793.55,15138,15.94,73994.8,7.13,10.09,10.19,0,*77
1530014794.75,15139,15.94,73996.0,7.17,10.09,10.13,0,*78
1530014795.94,15140,15.94,73994.5,7.19,9.95,9.95,0,*73
1530014797.17,15141,15.94,73992.8,7.27,9.95,9.85,0,*7E
1530014798.38,15142,15.94,73992.8,7.27,9.75,9.75,0,*7C
1530014799.58,15143,15.94,73992.3,7.31,9.75,9.67,0,*79
1530014800.77,15144,15.94,73996.0,7.31,9.63,9.63,0,*7D
1530014802.03,15145,15.94,73994.5,7.31,9.53,9.53,0,*7C
1530014803.25,15146,15.94,73996.0,7.35,9.53,9.63,0,*78
1530014804.5,15147,15.94,73994.5,7.35,9.61,9.53,0,*7B
1530014805.76,15148,15.94,73994.3,7.39,9.53,9.53,0,*79
1530014807.02,15149,15.94,73994.3,7.39,9.53,9.57,0,*7C
1530014808.25,15150,15.94,73992.8,7.41,9.77,9.81,0,*76
1530014809.47,15151,15.94,73998.0,7.43,10.09,10.09,0,*7C
1530014810.73,15152,15.94,73992.8,7.47,10.27,10.23,0,*7F
1530014811.95,15153,15.94,73992.3,7.49,10.05,10.17,0,*77
1530014813.23,15154,15.94,73994.3,7.53,9.81,9.81,0,*78
1530014814.48,15155,15.94,73994.3,7.53,9.57,9.57,0,*79
1530014815.72,15156,15.94,73994.8,7.51,9.49,9.49,0,*78
1530014816.98,15157,15.94,73996.0,7.57,9.49,9.49,0,*7F
1530014818.25,15158,15.94,73992.8,7.57,9.49,9.49,0,*70
1530014819.48,15159,15.94,73998.0,7.57,9.67,9.49,0,*7D
1530014820.66,15160,15.94,73992.8,7.59,9.75,9.75,0,*75
1530014821.92,15161,15.94,73994.3,7.61,9.85,9.85,0,*7F
1530014823.1,15162,15.94,73994.8,7.63,9.99,9.99,0,*7E
1530014824.32,15163,15.94,73994.5,7.65,10.09,10.09,0,*79
1530014825.51,15164,15.94,73994.8,7.67,10.13,10.17,0,*78
1530014826.7,15165,15.94,73994.5,7.71,10.17,10.17,0,*7A
1530014827.93,15166,15.94,73992.8,7.71,10.41,10.37,0,*78
1530014829.18,15167,15.94,73994.8,7.73,10.65,10.75,0,*7B
1530014830.42,15168,15.94,73992.8,7.75,10.95,11.07,0,*79
1530014831.63,15169,15.94,73992.8,7.79,11.03,11.21,0,*7E
1530014832.85,15170,15.94,73998.5,7.81,11.07,11.17,0,*70
1530014834.09,15171,15.94,73998.8,7.83,11.03,11.13,0,*73
1530014835.33,15172,15.94,73992.0,7.87,10.75,10.85,0,*7A
1530014836.57,15173,15.94,73992.0,7.89,10.57,10.65,0,*7B
1530014837.8,15174,15.94,73996.0,7.93,10.57,10.57,0,*76
1530014839.06,15175,15.94,73998.3,7.95,10.57,10.57,0,*71
1530014840.27,15176,15.94,73996.0,7.97,10.75,10.85,0,*7F
1530014841.54,15177,15.94,73992.5,7.99,10.99,11.07,0,*79
1530014842.73,15178,15.94,73994.8,8.01,11.09,11.21,0,*74
1530014843.94,15179,15.94,73992.3,8.05,11.17,11.27,0,*78
1530014845.16,15180,15.94,73996.8,8.05,11.17,11.23,0,*7A
1530014846.38,15181,15.94,73996.0,8.09,11.09,11.23,0,*78
1530014847.62,15182,15.94,73994.8,8.09,10.79,10.99,0,*7D
1530014848.82,15183,15.94,73998.3,8.15,10.89,10.83,0,*75
1530014850.06,15184,15.94,73998.3,8.15,10.83,10.83,0,*78
1530014851.33,15185,15.94,73998.8,8.17,10.75,10.75,0,*7B
1530014852.51,15186,15.94,73992.8,8.19,10.43,10.43,0,*76
1530014853.73,15187,15.94,73994.0,8.19,10.31,10.33,0,*75
1530014854.92,15188,15.94,73996.0,8.19,10.55,10.51,0,*7C
1530014856.13,15189,15.94,73994.8,8.23,10.75,10.85,0,*7F
1530014857.33,15190,15.94,73998.3,8.25,10.89,10.89,0,*7E
1530014858.54,15191,15.94,73998.3,8.27,10.95,10.93,0,*7B
1530014859.8,15192,15.94,73994.0,8.29,10.95,10.95,0,*70
1530014861.0,15193,15.94,73996.0,8.31,10.89,10.95,0,*75
1530014862.24,15194,15.94,73994.5,8.31,10.75,10.75,0,*7F
1530014863.44,15195,15.94,73992.5,8.31,10.55,10.57,0,*7C
1530014864.71,15196,15.94,73996.0,8.33,10.31,10.31,0,*7F
1530014865.96,15197,15.94,73994.5,8.33,10.31,10.33,0,*7C
1530014867.23,15198,15.94,73994.8,8.33,10.31,10.31,0,*71
1530014868.42,15199,15.94,73994.5,8.35,10.47,10.47,0,*76
1530014869.64,15200,15.94,73992.8,8.35,10.69,10.71,0,*7C
1530014870.85,15201,15.94,73996.5,8.39,10.93,10.99,0,*72
1530014872.08,15202,15.94,73996.5,8.39,10.95,11.03,0,*75
1530014873.32,15203,15.94,73996.8,8.41,10.93,11.03,0,*7D
1530014874.56,15204,15.94,73992.8,8.41,10.93,11.03,0,*7A
1530014875.83,15205,15.94,73992.5,8.47,10.99,10.99,0,*75
1530014877.07,15206,15.94,73996.5,8.47,10.93,10.99,0,*7C
1530014878.31,15207,15.94,73996.3,8.47,10.99,11.09,0,*7F
1530014879.57,15208,15.94,73998.0,8.51,11.27,11.45,0,*7B
1530014880.81,15209,15.94,73992.3,8.53,11.31,11.41,0,*7B
1530014882.04,15210,15.94,73996.0,8.53,11.37,11.51,0,*74
1530014883.29,15211,15.94,73994.8,8.55,11.47,11.57,0,*72
1530014884.53,15212,15.94,73994.3,8.57,11.57,11.75,0,*72
1530014885.76,15213,15.94,73992.8,8.59,11.71,11.81,0,*72
1530014886.95,15214,15.94,73992.3,8.65,11.81,11.85,0,*71
1530014888.13,15215,15.94,73996.0,8.65,11.81,11.93,0,*77
1530014889.33,15216,15.94,73996.0,8.69,11.89,11.99,0,*7A
1530014890.54,15217,15.94,73994.8,8.69,11.85,11.95,0,*7B
1530014891.75,15218,15.94,73998.0,8.73,11.71,11.85,0,*75
1530014892.95,15219,15.94,73992.8,8.73,11.71,11.81,0,*70
1530014894.22,15220,15.94,73996.5,8.77,11.67,11.79,0,*7E
1530014895.45,15221,15.94,73992.0,8.79,11.67,11.71,0,*79
1530014896.67,15222,15.94,73996.5,8.79,11.65,11.79,0,*70
1530014897.9,15223,15.94,73992.8,8.81,11.65,11.71,0,*7E
1530014899.13,15224,15.94,73996.5,8.85,11.71,11.85,0,*73
1530014900.36,15225,15.94,73996.0,8.85,11.71,11.81,0,*76
1530014901.54,15226,15.94,73996.5,8.87,11.55,11.65,0,*7B
1530014902.76,15227,15.94,73994.0,8.89,11.51,11.55,0,*73
1530014903.98,15228,15.94,73996.0,8.91,11.55,11.57,0,*73
1530014905.21,15229,15.94,73996.3,8.91,11.75,11.79,0,*7C
1530014906.42,15230,15.94,73994.3,8.95,12.13,12.23,0,*7F
1530014907.61,15231,15.94,73996.5,8.95,12.27,12.43,0,*7F
1530014908.82,15232,15.94,73996.5,8.95,12.23,12.33,0,*7F
1530014910.03,15233,15.94,73996.0,8.99,12.09,12.19,0,*72
1530014911.22,15234,15.94,73994.8,9.03,11.99,12.19,0,*7D
1530014912.43,15235,15.94,73992.8,9.01,11.89,12.03,0,*74
1530014913.62,15236,15.94,73996.5,9.03,11.85,11.93,0,*73
1530014914.84,15237,15.94,73998.8,9.09,11.99,12.09,0,*75
1530014916.08,15238,15.94,73998.3,9.11,11.99,12.17,0,*7C
1530014917.29,15239,15.94,73992.5,9.13,12.13,12.19,0,*70
1530014918.5,15240,15.94,73996.5,9.13,12.19,12.29,0,*77
1530014919.71,15241,15.94,73998.8,9.13,12.23,12.29,0,*7F
1530014920.91,15242,15.94,73998.5,9.17,12.23,12.27,0,*76
1530014922.12,15243,15.94,73998.3,9.19,12.03,12.19,0,*76
1530014923.31,15244,15.94,73996.0,9.21,11.89,11.99,0,*70
1530014924.5,15245,15.94,73998.0,9.21,11.89,11.85,0,*7C
1530014925.73,15246,15.94,73996.5,9.25,11.67,11.79,0,*78
1530014926.95,15247,15.94,73998.0,9.25,11.51,11.57,0,*70
1530014928.21,15248,15.94,73998.0,9.23,11.31,11.33,0,*7D